Flag Weather past 2 weeks in Battambang, Cambodia

Now
79 °F

Passing clouds.


Feels Like: 82 °F
Forecast: 77 / 91 °F
Wind: 3 mph from East

Location: Siemreap

Current Time: Oct 31, 2014 at 12:58:31 AM

Latest Report: Oct 31, 2014 at 12:00 AM


Visibility: 6 mi

Pressure: 29.80 "Hg

Humidity: 89%

Dew point: 75 °F

Location of BattambangLocation

Historic Weather in Battambang — Graph

°F

Battambang temperature yesterday

Maximum temperature yesterday: 90 °F (at 12:00 PM)
Minimum temperature yesterday: 79 °F (at 9:30 PM)
Average temperature yesterday: 84 °F

Past Weeks' High & Low Weather Summary

 TemperatureHumidityPressure
High102 °F (Oct 16, 6:00 PM)94% (Oct 19, 1:00 AM)29.98 "Hg (Oct 19, 1:00 AM)
Low73 °F (Oct 21, 7:30 AM)37% (Oct 23, 5:30 PM)29.56 "Hg (Oct 20, 7:00 PM)
Average83 °F79%29.83 "Hg
* Reported Oct 15 11:00 PM — Oct 30 11:30 PM, Battambang, Weather by CustomWeather, © 2014

Note: Actual official high and low records may vary slightly from our data, if they occured in-between our weather recording intervals... More about our weather records

Advertising

Battambang weather history for previous 24 hours

 ConditionsComfort  
Time TempWeatherWind HumidityBarometerVisibility
11:30 PM
Oct 30
79 °FPassing clouds.3 mph89%29.80 "Hg6 mi
11:00 PM79 °FPassing clouds.1 mph84%29.80 "Hg6 mi
10:30 PM81 °FPassing clouds.2 mph79%29.80 "Hg6 mi
10:00 PM79 °FPassing clouds.5 mph89%29.80 "Hg6 mi
9:30 PM79 °FPassing clouds.2 mph89%29.83 "Hg6 mi
8:30 PM81 °FPassing clouds.5 mph84%29.83 "Hg6 mi
8:00 PM82 °FPassing clouds.8 mph79%29.80 "Hg6 mi
7:30 PM84 °FPassing clouds.7 mph84%29.80 "Hg6 mi
7:00 PM84 °FPassing clouds.2 mph79%29.77 "Hg6 mi
6:30 PM84 °FPassing clouds.2 mph79%29.77 "Hg6 mi
6:00 PM86 °FPassing clouds.No wind75%29.74 "HgN/A
5:30 PM86 °FScattered clouds.3 mph75%29.74 "HgN/A
5:00 PM86 °FPassing clouds.3 mph75%29.71 "HgN/A
4:30 PM86 °FPassing clouds.3 mph75%29.71 "HgN/A
4:00 PM86 °FPassing clouds.3 mph75%29.71 "HgN/A
3:30 PM84 °FScattered clouds.3 mph84%29.71 "HgN/A
3:00 PM81 °FScattered clouds.7 mph84%29.71 "Hg6 mi
2:30 PM81 °FThunderstorms. Scattered clouds.12 mph84%29.74 "Hg5 mi
2:00 PM86 °FThunderstorms. Scattered clouds.6 mph75%29.74 "Hg6 mi
1:30 PM86 °FScattered clouds.8 mph75%29.77 "HgN/A
1:00 PM90 °FScattered clouds.9 mph63%29.77 "HgN/A
12:30 PM90 °FScattered clouds.5 mph63%29.80 "HgN/A
12:00 PM90 °FScattered clouds.5 mph63%29.80 "HgN/A
11:30 AM88 °FScattered clouds.5 mph66%29.80 "HgN/A
11:00 AM88 °FScattered clouds.5 mph70%29.83 "HgN/A
10:30 AM88 °FScattered clouds.No wind70%29.86 "HgN/A
10:00 AM88 °FScattered clouds.3 mph70%29.86 "HgN/A
9:30 AM86 °FScattered clouds.2 mph75%29.86 "HgN/A
9:00 AM84 °FScattered clouds.No wind79%29.86 "HgN/A
8:30 AM84 °FPassing clouds.5 mph79%29.83 "HgN/A
8:00 AM82 °FPassing clouds.5 mph84%29.83 "HgN/A
7:30 AM81 °FPassing clouds.5 mph94%29.83 "HgN/A
7:00 AM81 °FPassing clouds.5 mph94%29.83 "HgN/A
1:00 AM81 °FPassing clouds.5 mph94%29.83 "Hg5 mi
Weather by CustomWeather, © 2014

See weather overviewHow to use our weather pages